This demonstration page uses our WeatherBlox Daily Observations layout. Learn more.

Left ArrowRight Arrow

34.74481, -87.66753

Hourly Observations for May 5, 2017

Temp ( °F °C ) Dew Point ( °F °C ) Humidity (%) Winds ( mph kmh ) Pressure ( in mb ) Visibility ( mi km ) Precip ( " mm )
12:53 am 00:53 Cloudy with Rain 51 10.6 49 9.4 92 92 W 10 17 29.57 1001 5 8 0.20 5.08
1:53 am 01:53 Cloudy with Light Rain 51 10.6 49 9.4 92 92 W 9 15 29.56 1001 7 11 0.05 1.27
2:53 am 02:53 Cloudy with Light Rain 50 10 48 8.9 93 93 WNW 12 19 29.56 1001 9 14 0.06 1.52
3:06 am 03:06 Cloudy with Light Rain 50 10 48 8.9 93 93 WNW 10 17 29.59 1002 7 11 0.01 0.25
3:28 am 03:28 Cloudy with Light Rain 50 10 47 8.3 89 89 WNW 8 13 29.59 1002 9 14 0.02 0.51
3:33 am 03:33 Cloudy 50 10 48 8.9 93 93 WNW 8 13 29.59 1002 8 13 0.02 0.51
3:53 am 03:53 Cloudy 50 10 48 8.9 93 93 WNW 12 19 29.56 1001 8 13 0.02 0.51
4:33 am 04:33 Cloudy 50 10 47 8.3 89 89 WNW 14 22 29.59 1002 10 16 0.00 0.03
4:45 am 04:45 Cloudy 50 10 46 7.8 86 86 WNW 14 22 29.59 1002 10 16 0.00 0.03
4:53 am 04:53 Cloudy 50 10 46 7.8 86 86 WNW 13 20 29.56 1001 10 16 0.00 0.03
5:05 am 05:05 Cloudy 50 10 47 8.3 89 89 WNW 13 20 29.59 1002 10 16 0.00 0.00
5:43 am 05:43 Cloudy 50 10 46 7.8 86 86 WNW 9 15 29.62 1003 10 16 0.00 0.00
5:51 am 05:51 Cloudy 50 10 46 8 88 88 WNW 9 15 29.62 1003 10 16 0.00 0.00
5:53 am 05:53 Cloudy 50 10 46 7.8 86 86 WNW 10 17 29.57 1002 10 16 0.00 0.00
6:17 am 06:17 Cloudy 49 9.4 46 7.8 90 90 WNW 13 20 29.62 1003 10 16 0.00 0.00
6:33 am 06:33 Cloudy 49 9.4 46 7.8 90 90 WNW 10 17 29.62 1003 9 14 0.00 0.00
6:49 am 06:49 Cloudy 48 9 46 8 94 94 WNW 12 19 29.62 1003 9 14 0.00 0.00
6:53 am 06:53 Cloudy 49 9.4 46 7.8 90 90 WNW 9 15 29.60 1002 7 11 0.00 0.00
7:11 am 07:11 Cloudy with Mist and Fog 49 9.4 46 7.8 90 90 WNW 13 20 29.62 1003 6 10 0.00 0.00
7:53 am 07:53 Cloudy 50 10 47 8.3 89 89 WNW 16 26 29.60 1002 10 16 0.00 0.00
8:03 am 08:03 Cloudy 50 10 46 7.8 86 86 WNW 13 20 29.65 1004 10 16 0.00 0.00
8:53 am 08:53 Cloudy 51 10.6 47 8.3 86 86 WNW 14 22 29.61 1003 10 16 0.00 0.00
8:56 am 08:56 Cloudy 51 10.6 47 8.3 86 86 WNW 13 20 29.65 1004 10 16 0.00 0.00
9:53 am 09:53 Cloudy 50 10 46 7.8 86 86 WNW 12 19 29.63 1004 10 16 0.00 0.00
10:45 am 10:45 Cloudy 51 10.6 46 7.8 83 83 WNW 14 22 29.68 1005 10 16 0.00 0.00
10:53 am 10:53 Cloudy 51 10.6 46 7.8 83 83 NW 12 19 29.65 1004 10 16 0.00 0.00
11:00 am 11:00 Cloudy 51 10.6 45 7.2 80 80 NW 12 19 29.68 1005 10 16 0.00 0.00
11:53 am 11:53 Cloudy with Light Rain 50 10 46 7.8 86 86 WNW 14 22 29.67 1005 10 16 0.02 0.51
12:15 pm 12:15 Cloudy with Light Rain 50 10 47 8.3 89 89 WNW 15 24 29.71 1006 7 11 0.00 0.03
12:35 pm 12:35 Cloudy 51 10.6 47 8.3 86 86 NW 15 24 29.71 1006 10 16 0.00 0.03
12:42 pm 12:42 Cloudy 52 11.1 46 7.8 80 80 WNW 10 17 29.71 1006 10 16 0.00 0.03
12:53 pm 12:53 Cloudy 51 10.6 46 7.8 83 83 NW 14 22 29.69 1005 10 16 0.00 0.03
1:04 pm 13:04 Cloudy 51 10.6 46 7.8 83 83 NW 15 24 29.71 1006 10 16 0.00 0.00
1:28 pm 13:28 Cloudy with Light Rain 50 10 46 7.8 86 86 NW 10 17 29.74 1007 9 14 0.01 0.25
1:38 pm 13:38 Cloudy with Light Rain 50 10 47 8.3 89 89 NW 12 19 29.74 1007 5 8 0.02 0.51
1:53 pm 13:53 Cloudy with Light Rain 50 10 46 7.8 86 86 NW 13 20 29.71 1006 6 10 0.03 0.76
2:01 pm 14:01 Cloudy 50 10 47 8.3 89 89 NW 14 22 29.74 1007 10 16 0.00 0.03
2:09 pm 14:09 Cloudy 51 10.6 47 8.3 86 86 NW 8 13 29.74 1007 10 16 0.00 0.03
2:35 pm 14:35 Cloudy 51 10.6 46 7.8 83 83 NNW 13 20 29.77 1008 10 16 0.00 0.03
2:53 pm 14:53 Cloudy 52 11.1 47 8.3 83 83 NNW 10 17 29.73 1007 10 16 0.00 0.03
3:51 pm 15:51 Cloudy 54 12 46 8 77 77 NW 7 11 29.77 1008 10 16 0.00 0.00
3:53 pm 15:53 Cloudy 54 12.2 47 8.3 77 77 NNW 7 11 29.74 1007 10 16 0.00 0.00
4:10 pm 16:10 Cloudy 54 12.2 48 8.9 80 80 NW 7 11 29.77 1008 10 16 0.00 0.00
4:40 pm 16:40 Mostly Cloudy 55 12.8 48 8.9 77 77 NW 6 9 29.77 1008 10 16 0.00 0.00
4:53 pm 16:53 Mostly Cloudy 56 13.3 49 9.4 77 77 NW 7 11 29.74 1007 10 16 0.00 0.00
5:53 pm 17:53 Mostly Cloudy 58 14.4 49 9.4 72 72 NE 5 7 29.75 1008 10 16 0.00 0.00
6:53 pm 18:53 Mostly Cloudy 56 13.3 50 10 81 81 Calm 29.77 1008 10 16 0.00 0.00
7:53 pm 19:53 Mostly Clear 56 13.3 45 7.2 67 67 NW 9 15 29.80 1009 10 16 0.00 0.00
8:53 pm 20:53 Clear 54 12.2 41 5 62 62 NW 8 13 29.82 1010 10 16 0.00 0.00
9:53 pm 21:53 Clear 52 11.1 42 5.6 69 69 NW 7 11 29.84 1011 10 16 0.00 0.00
10:53 pm 22:53 Clear 52 11.1 42 5.6 69 69 NW 8 13 29.84 1011 10 16 0.00 0.00
11:53 pm 23:53 Clear 51 10.6 42 5.6 71 71 NW 8 13 29.84 1010 10 16 0.00 0.00

Powered by AerisWeather